HST
1 20580U 90037B   24100.25053482  .00004781  00000-0  22828-3 0  9995
2 20580  28.4684  86.6384 0002385   4.6779 355.3835 15.16641384666813
ISS (ZARYA)
1 25544U 98067A   24100.07853737  .00013558  00000-0  24486-3 0  9996
2 25544  51.6387 298.0555 0004839  50.5238  94.3443 15.50024904447825
CXO
1 25867U 99040B   24101.75442889  .00000852  00000-0  00000-0 0  9990
2 25867  39.7258 160.4924 8952487 291.5303   0.1634  0.37813076 14314